Location: Cedar Brake
(32.2526°N, 97.8459°W)
Time: 20:53:15
(UTC+00:00)

ASTEX 1 - Pass Details

Date: 22 April 2026
Orbit: 712 x 734 km, 92.7° (Epoch: 21 May)

Event Time Altitude Azimuth Distance (km) Brightness Sun altitude
Exits shadow 03:26:49 67° 358° (N) 788 3.6 -27.6°
Drops below altitude 10° 03:31:04 10° 355° (N) 2,228 6.4 -28.3°
Sets 03:33:22 0° 355° (N) 3,156 7.3 -28.7°
